Temp
19 19 19 20 20 20 20 19 19 19 18 18 19 19 19 19 19 19 19 19 19 18 18 18 18 18 18 18 18 18 17 17 18 18 18 18 18 18 18 19 19 19 18
19 19 19 20 20 20 20 19 19 19 19 19 19 19 19 19 18 19 18 18 18 18 18 18 18 18 18 17 17 17 18 18 18 18 18 18 19 18 18 18 18 18 18
19 19 19 19 20 20 20 20 19 19 19 19 19 19 19 19 19 18 18 18 18 18 18 18 18 17 17 17 18 17 18 18 18 18 18 18 18 18 19 18 18 18 18
19 19 19 19 20 20 20 20 20 19 19 19 19 19 18 19 18 18 18 18 18 18 18 18 17 17 17 17 17 17 18 18 18 18 17 17 18 18 19 18 18 17 17
19 19 19 19 19 20 19 20 20 20 19 19 19 19 19 18 18 19 18 18 18 18 18 18 18 18 18 18 18 18 18 18 18 18 18 18 18 18 18 18 18 17 18
19 19 19 19 19 19 19 19 19 19 19 19 19 19 19 19 19 19 19 18 18 18 18 19 19 18 18 18 18 18 18 18 18 18 18 18 18 18 18 18 18 18 18
19 19 19 19 19 20 19 19 19 19 19 19 18 18 18 18 19 19 19 19 18 18 18 18 18 18 18 18 18 18 18 18 18 18 18 18 18 17 18 19 18 18 18
19 19 19 19 19 19 19 19 19 19 18 18 18 18 18 18 18 18 18 18 18 18 18 18 18 18 18 18 18 18 18 18 18 19 18 18 18 18 17 18 17 17 18
19 19 19 19 20 20 19 19 19 18 18 18 18 18 18 18 18 18 18 18 18 18 18 18 18 18 18 18 18 18 18 18 18 18 18 18 18 18 18 18 18 18 18
19 19 19 20 20 20 20 20 19 19 18 18 18 18 18 18 18 18 18 18 18 18 18 18 18 18 18 18 18 18 18 18 18 18 18 18 18 18 18 18 18 19 18
17 17 17 18 18 19 19 19 19 20 19 19 19 18 18 18 18 17 17 17 17 18 18 18 18 18 18 18 18 18 18 18 18 19 18 18 18 17 18 18 18 18 18
15 16 16 17 17 18 18 19 19 19 19 19 19 19 19 19 18 18 17 17 17 17 17 17 17 17 17 18 18 18 18 18 18 19 19 18 18 18 18 18 18 18 18
9 13 15 16 16 17 18 18 18 19 19 19 19 18 18 18 18 18 17 18 17 17 17 17 17 17 17 17 18 18 18 18 18 18 18 18 17 17 17 18 18 18 18
7 10 12 14 16 16 16 17 18 18 18 18 18 18 18 18 18 18 18 17 17 17 17 17 17 17 17 17 17 18 18 18 18 18 18 18 17 17 17 18 18 18 18
4 5 8 11 13 14 16 16 16 17 17 18 18 17 17 17 18 17 17 17 17 17 17 17 17 17 17 17 17 17 17 18 18 18 18 18 18 17 17 17 17 18 18
3 4 6 7 10 12 14 14 15 15 16 16 16 17 17 17 17 17 17 17 17 17 17 17 17 17 17 17 17 17 17 17 18 18 18 18 17 17 17 17 17 17 17
2 3 3 6 8 9 11 12 13 14 15 15 15 15 16 16 16 16 16 17 17 16 16 17 17 17 17 16 17 17 17 17 17 17 18 18 18 17 17 17 18 17 17
1 2 3 4 6 8 9 10 11 12 13 13 14 14 14 15 15 15 15 16 16 16 16 16 16 17 16 15 16 16 16 16 16 17 17 17 17 18 18 17 17 17 17
0 1 1 2 4 5 7 9 9 10 11 10 11 12 12 13 13 14 14 15 15 15 15 15 16 15 14 14 15 15 15 15 16 16 16 17 17 17 17 18 18 18 17
-0 0 0 1 2 3 5 7 8 9 8 8 9 10 10 11 12 12 13 14 14 14 15 15 15 14 13 14 14 14 15 15 15 15 16 16 16 17 17 17 18 18 18
-0 -0 -0 0 0 1 2 2 4 5 7 9 9 9 9 9 10 11 11 12 13 13 14 14 14 14 14 14 13 13 14 14 14 15 16 16 16 16 17 17 17 18 18
-1 -1 -1 -1 -1 -0 0 0 1 3 5 5 6 8 8 8 9 9 10 10 11 12 13 13 13 13 12 13 13 13 15 14 13 14 15 15 16 15 16 16 17 17 18
-1 -2 -2 -1 -1 -1 -1 -0 1 2 3 3 5 4 6 7 8 8 10 10 10 10 12 13 13 12 11 13 12 14 13 14 13 12 12 12 13 13 14 15 15 16 17
-2 -2 -2 -2 -2 -1 -2 -2 -2 -1 -0 -0 0 1 3 3 6 8 8 9 9 9 10 12 13 12 12 12 11 12 12 13 14 15 12 12 13 13 13 13 14 15 15
-2 -3 -2 -2 -2 -2 -2 -2 -2 -2 -2 -2 -1 -0 1 3 3 7 8 8 8 9 9 10 12 12 12 11 11 11 11 12 13 13 14 14 13 14 14 13 13 14 14
-3 -3 -3 -3 -3 -3 -3 -3 -3 -3 -3 -3 -2 -2 -1 -1 1 2 3 5 7 7 7 8 10 12 12 12 12 11 12 11 11 12 13 13 13 13 14 14 14 14 14
Height
825 826 827 828 829 830 831 831 832 832 834 834 835 836 836 836 837 837 839 839 840 841 841 841 842 843 844 844 844 845 846 846 846 846 847 848 848 849 849 848 850 851 852
825 827 828 829 830 831 831 833 834 834 835 836 837 837 838 839 839 840 840 841 842 843 843 843 844 844 845 845 845 846 847 847 848 848 848 850 850 851 851 851 852 853 854
827 828 830 831 831 832 834 834 835 836 837 837 838 838 839 840 841 842 842 843 844 844 845 845 845 845 845 846 847 847 848 849 850 850 850 851 853 853 853 854 855 856 856
829 830 832 832 833 834 835 836 837 837 838 839 840 840 841 842 843 843 843 845 845 845 846 847 847 847 847 847 848 849 850 851 851 852 852 853 854 854 855 856 857 857 858
830 832 833 834 835 835 837 838 838 838 840 840 840 842 842 843 843 844 844 845 845 847 847 847 847 848 848 848 849 850 851 852 852 853 854 854 855 856 856 857 858 859 860
832 834 835 835 836 837 839 840 840 840 841 841 842 843 843 843 844 845 845 846 846 847 848 848 848 849 849 850 851 851 852 853 853 854 854 855 856 856 858 859 859 861 861
835 836 837 837 838 839 839 840 841 841 842 842 843 843 843 844 845 845 846 846 847 847 848 849 849 849 850 851 851 852 852 853 854 854 855 856 857 858 859 860 861 862 863
837 838 838 839 840 840 841 841 841 842 843 843 843 844 844 845 845 846 847 847 847 848 848 849 849 850 850 850 851 852 853 853 854 854 855 856 858 859 860 861 862 862 863
840 841 841 841 841 842 842 842 843 843 843 844 844 844 844 845 845 846 847 847 847 847 848 848 849 850 850 850 851 852 853 853 854 855 855 856 857 858 860 861 861 861 863
843 843 843 843 843 842 842 842 842 842 843 843 843 844 844 844 844 845 846 846 847 847 847 848 849 849 849 849 850 852 853 853 854 855 855 856 856 857 858 860 862 863 863
844 845 846 845 845 845 844 843 843 842 842 842 843 843 843 843 843 843 844 845 845 846 847 847 847 848 848 848 849 850 851 853 854 854 855 856 855 854 856 859 862 864 864
844 844 845 845 845 845 845 844 844 843 843 843 842 842 842 841 841 842 842 843 843 844 845 845 846 847 847 847 848 848 849 851 852 853 853 854 855 855 856 858 860 862 864
850 847 844 842 842 843 843 843 844 844 844 843 843 842 841 841 840 840 840 840 841 842 842 843 844 844 845 846 846 847 848 849 850 852 852 853 854 856 857 860 860 861 863
849 847 845 842 841 840 840 841 841 842 843 844 843 842 841 840 840 839 839 839 839 840 840 840 841 842 843 843 844 845 847 847 848 849 851 852 853 855 856 858 859 860 861
854 850 846 843 840 838 837 838 839 839 839 840 841 842 841 840 839 838 837 837 838 838 838 838 839 839 840 841 842 843 844 845 846 847 848 850 852 853 854 856 857 859 860
859 854 850 845 841 838 837 836 837 837 837 838 838 838 839 840 839 838 837 836 836 836 836 836 836 837 837 838 839 841 842 843 844 845 846 847 849 851 852 854 856 857 858
864 860 853 848 844 840 837 836 836 835 836 836 836 836 836 836 837 836 835 835 835 835 834 833 833 834 835 835 836 837 839 839 840 841 842 844 845 847 849 851 853 854 856
867 862 858 853 847 843 840 838 836 835 835 835 834 835 835 834 833 834 834 833 833 833 833 832 832 831 831 832 833 833 835 836 837 838 839 840 841 843 844 846 848 850 853
870 866 860 855 850 846 843 841 839 837 835 835 834 833 833 832 832 832 831 831 831 831 831 831 830 830 829 830 830 830 830 831 832 833 834 836 837 839 840 841 843 845 847
873 870 865 860 854 849 845 842 841 839 837 836 835 833 832 831 830 830 829 828 829 828 827 828 828 828 828 828 828 827 827 827 827 827 828 830 832 834 835 837 839 840 842
875 870 866 862 858 853 848 843 840 840 839 838 837 835 833 831 829 828 827 826 826 826 826 825 824 825 825 825 826 824 823 822 822 822 823 824 825 828 830 831 833 835 837
879 875 871 867 864 860 856 854 851 845 842 840 837 835 834 831 828 826 825 824 823 823 822 822 822 821 821 821 823 823 820 817 816 816 817 818 820 822 824 826 828 829 831
882 878 874 870 867 864 860 855 850 845 842 838 834 833 831 830 827 824 822 821 820 820 819 818 818 818 818 817 818 819 820 815 814 811 811 812 814 816 818 820 822 825 826
885 882 878 874 870 866 862 857 855 852 848 843 838 833 828 827 824 823 819 818 816 816 814 814 814 813 813 813 813 813 812 813 812 810 810 809 810 811 813 815 817 818 820
886 882 877 873 870 866 862 860 856 852 849 842 837 831 826 822 819 817 816 814 812 810 810 809 808 807 807 807 807 808 809 809 810 811 808 808 807 807 809 811 813 815 816
885 882 878 873 869 865 861 857 855 851 846 841 836 831 825 820 815 813 811 809 807 805 804 803 802 800 800 800 800 801 802 802 803 805 806 805 805 804 804 805 807 809 811
Wind_Speed
7 8 7 7 9 9 9 11 11 12 13 12 12 13 13 14 13 13 12 12 11 12 12 13 12 12 11 13 14 14 14 13 12 12 15 15 14 14 16 18 19 17 17
9 9 7 7 9 9 10 11 9 11 12 12 12 12 11 10 11 11 10 8 9 11 12 12 12 13 12 11 11 11 11 12 12 12 13 13 12 13 16 19 19 18 18
11 10 7 7 8 9 10 10 10 10 9 9 9 9 10 8 7 8 8 8 9 10 11 12 12 12 13 12 11 12 12 11 11 11 12 9 9 13 14 18 18 18 16
10 9 8 7 8 7 7 7 7 8 8 7 7 8 8 8 8 8 9 8 8 10 10 11 11 11 12 12 12 12 12 11 9 10 10 9 7 12 16 15 15 16 16
9 9 7 6 6 6 5 4 4 4 4 5 6 5 6 7 7 7 8 8 7 9 8 9 10 10 10 11 12 11 10 9 8 8 8 9 8 13 15 16 15 15 16
9 7 6 5 4 3 4 4 3 2 2 2 3 4 4 5 6 6 6 5 5 8 7 8 8 9 9 10 10 10 9 8 6 5 6 7 8 11 16 15 15 14 14
8 6 5 3 2 1 1 1 1 1 1 2 2 3 3 4 4 5 5 4 5 5 7 7 7 7 8 9 9 8 6 3 3 4 4 5 6 6 12 12 14 14 12
6 5 4 2 1 0 1 2 2 2 2 3 3 4 4 5 5 5 5 5 5 5 6 8 8 6 8 9 10 8 6 3 4 6 4 4 6 8 6 10 13 13 12
3 3 3 2 0 1 3 3 3 3 4 4 4 4 5 6 6 6 6 7 7 6 7 7 8 7 7 10 10 9 7 5 4 4 3 1 4 10 11 12 15 16 14
1 1 1 2 2 3 4 4 4 4 5 6 6 7 7 7 8 8 8 8 9 9 8 8 8 8 7 9 11 11 9 7 5 5 4 2 2 7 15 13 14 12 14
9 11 11 8 6 6 5 5 5 4 5 6 7 8 9 10 9 9 9 9 10 10 10 10 9 8 8 8 9 12 12 11 8 6 6 4 4 3 16 16 13 11 11
20 15 14 13 13 11 9 8 8 7 7 8 8 8 9 11 11 11 11 10 11 11 11 12 11 10 10 10 10 11 13 12 12 10 8 5 5 6 11 13 15 13 11
20 17 16 14 11 12 13 12 12 12 10 10 10 10 10 10 10 12 12 12 12 11 13 13 14 14 14 12 12 11 12 12 12 12 9 7 7 8 9 11 13 12 11
24 21 19 15 13 12 15 14 12 12 13 13 13 13 13 11 11 10 12 13 12 12 13 13 15 16 15 14 13 13 13 12 12 12 12 9 8 10 10 12 11 12 11
26 26 24 19 15 12 11 13 14 13 12 12 14 14 13 13 12 11 10 12 13 12 13 15 15 16 16 17 16 15 15 14 13 12 13 13 11 12 12 12 11 11 11
27 30 30 27 21 13 9 7 9 11 12 13 12 10 11 13 13 13 13 13 13 13 15 14 14 15 17 17 18 17 17 17 17 16 13 14 13 14 15 13 12 11 12
25 26 32 35 31 23 15 10 7 9 11 11 11 11 10 11 13 15 15 15 14 13 12 15 15 18 18 18 19 19 19 19 19 19 19 17 17 16 16 16 15 15 13
25 28 28 32 36 34 29 17 15 10 9 9 10 12 12 12 12 13 16 15 15 15 14 14 14 14 14 16 19 19 20 20 21 21 20 20 20 20 20 20 18 19 18
26 28 31 32 37 34 34 30 21 15 15 16 12 12 13 13 14 14 15 16 15 17 17 16 16 14 13 16 18 18 20 21 22 23 23 24 22 19 21 23 23 22 23
29 28 31 32 38 34 34 32 31 24 23 20 19 16 14 13 14 16 16 16 16 17 17 16 17 15 14 15 16 20 20 20 19 22 23 24 25 26 25 23 24 24 23
30 31 32 33 34 38 38 37 26 29 28 26 25 27 21 18 14 14 16 18 17 18 19 17 17 17 17 16 9 13 19 22 21 19 20 21 22 26 27 27 26 24 24
25 27 28 30 29 32 33 27 20 19 19 19 27 28 27 25 20 17 18 18 19 21 20 20 19 15 14 14 7 7 4 5 15 23 22 22 21 19 23 25 25 26 25
25 27 26 28 27 27 29 30 31 23 27 23 32 31 30 27 27 21 20 20 20 21 24 24 23 20 13 15 18 8 2 5 2 4 10 16 17 18 19 21 23 24 24
22 25 27 27 27 27 27 26 23 20 22 25 24 27 31 23 25 26 22 21 20 22 26 28 28 26 21 16 15 23 18 5 2 2 3 6 9 15 17 19 18 20 23
21 24 27 27 28 27 26 23 22 22 20 24 26 29 29 31 29 27 27 26 22 21 25 29 32 32 28 21 18 11 16 17 19 9 7 8 8 9 6 7 11 14 19
20 23 25 26 28 28 28 26 21 21 23 24 25 26 26 31 34 31 28 28 29 25 22 28 32 37 34 33 27 23 17 8 12 13 9 11 11 12 18 15 15 14 15
Wind_Direction
161 153 151 145 142 143 126 117 111 110 109 106 107 108 111 115 116 113 110 109 106 101 104 104 103 104 102 100 104 97 96 102 118 114 106 107 109 108 109 109 103 105 104
162 149 146 144 143 146 137 124 109 111 116 119 120 119 116 118 119 117 117 113 107 106 106 106 107 107 106 107 108 105 106 103 112 124 118 113 120 123 120 119 112 114 107
147 143 141 140 135 145 141 135 135 116 113 118 118 120 124 125 121 116 112 113 114 113 113 113 113 113 110 110 114 114 113 110 109 120 131 114 132 140 132 126 122 117 115
146 145 140 133 131 141 145 144 136 135 132 122 120 122 121 124 125 121 115 119 124 129 121 119 118 118 116 116 115 118 118 112 109 115 126 108 124 150 139 134 127 122 119
148 148 143 132 127 130 134 130 137 142 136 138 143 135 132 131 132 130 130 134 140 141 132 130 125 123 122 122 121 119 121 120 109 117 130 117 106 151 136 132 129 126 123
142 141 142 146 143 133 124 130 150 155 157 167 166 173 166 158 153 146 153 172 155 151 152 146 137 140 134 135 133 129 121 111 122 124 132 132 120 141 146 140 140 133 132
136 131 125 119 105 83 79 102 132 157 192 211 221 219 213 201 186 178 171 159 171 173 171 165 159 153 155 154 153 153 141 124 171 166 149 152 148 123 143 145 144 141 137
136 132 126 120 94 4 253 266 269 264 254 250 250 237 237 243 228 217 208 201 198 196 194 184 189 182 179 177 177 179 162 124 109 152 168 188 178 163 177 162 156 147 147
136 133 137 140 70 328 311 302 295 287 283 283 274 272 266 257 251 243 233 234 232 221 215 204 197 214 202 195 193 196 191 170 157 170 164 163 207 196 197 181 173 159 160
141 177 228 252 266 291 296 291 287 286 285 281 277 271 268 265 262 260 253 241 244 238 230 221 213 211 220 206 204 205 209 206 194 205 208 214 248 238 214 201 186 173 165
11 358 340 327 307 297 297 291 283 283 286 285 279 275 273 271 267 265 257 250 247 246 241 237 231 223 224 219 211 212 218 221 226 225 218 224 266 270 188 195 189 181 181
0 354 349 335 317 304 293 284 283 282 288 296 291 289 282 272 266 264 261 257 251 246 241 239 238 234 228 224 219 216 222 227 230 234 238 228 207 170 154 165 178 182 185
357 351 346 332 316 305 291 284 288 286 288 295 295 293 296 288 278 264 263 261 259 254 247 243 236 229 229 229 226 227 227 227 230 230 229 228 196 184 181 192 189 191 187
8 4 354 346 325 300 291 284 279 282 291 298 300 293 290 292 283 278 275 268 265 258 256 249 244 242 237 234 234 232 231 230 232 232 229 226 224 197 196 201 202 203 210
14 11 11 4 351 334 301 290 280 282 284 290 296 298 299 292 292 283 280 275 269 271 262 256 252 247 242 239 238 238 236 233 234 236 235 230 229 223 216 212 216 224 228
15 17 19 17 12 4 353 325 306 298 300 300 297 292 293 299 298 298 295 287 278 274 262 258 256 253 250 247 246 244 244 242 239 238 239 230 226 222 226 228 228 227 229
17 17 21 24 26 22 18 14 350 327 318 313 307 306 302 296 299 299 294 292 293 288 276 257 260 255 249 246 244 245 247 249 248 245 243 239 233 229 227 230 236 235 234
21 20 22 23 31 31 28 22 34 29 9 352 340 332 328 318 307 302 300 295 294 290 281 272 263 257 257 255 254 252 251 248 248 249 249 246 243 239 238 236 235 244 242
21 19 22 22 25 26 26 29 24 24 40 31 20 4 350 338 328 314 306 299 290 285 283 277 268 261 262 264 266 268 264 256 250 249 246 245 243 242 241 241 239 244 246
26 24 24 21 22 20 23 21 19 25 16 21 14 11 9 359 346 331 317 307 297 282 273 270 270 266 254 257 262 263 263 267 256 250 247 246 245 243 243 243 240 247 245
24 24 21 19 18 20 18 13 7 5 4 2 1 4 356 348 350 347 334 319 303 287 276 268 262 262 262 258 259 265 259 258 256 246 243 244 245 246 247 248 247 249 247
18 17 16 16 15 16 16 10 3 358 344 349 351 350 351 350 344 340 332 327 312 296 278 267 261 257 254 246 229 246 276 253 238 242 242 242 245 247 246 246 248 247 248
15 13 11 11 10 8 9 6 5 2 354 348 347 342 342 343 341 333 323 320 311 301 282 271 259 249 244 251 222 219 207 243 296 226 238 243 242 243 246 246 248 250 253
6 7 8 5 4 4 2 2 3 358 342 332 329 331 329 329 331 334 325 316 314 303 289 275 266 254 246 242 237 232 238 233 226 275 245 222 235 243 249 254 257 252 253
1 359 360 357 357 355 356 354 350 343 334 330 328 328 329 324 325 322 323 319 312 305 300 280 270 261 250 239 228 221 231 236 240 247 263 259 250 249 250 249 254 265 268
352 354 353 349 349 349 347 345 341 333 328 327 325 324 324 321 321 317 313 311 310 303 305 295 271 260 254 249 240 231 220 206 216 219 235 244 257 262 271 270 267 268 271